Wind_Speed
40 40 39 39 39 39 39 38 38 39 39 39 39 39 39 39 39 39 39 40 40 41 42 43 44 45 46 47 47 48 49 49 49 49 51 52 54 55 56 57 57 58 58
41 41 41 41 41 40 40 40 40 39 40 40 41 40 39 40 40 40 40 41 41 42 43 44 45 46 47 47 48 48 49 50 51 51 52 54 55 56 57 58 58 59 59
42 43 43 42 42 41 41 41 41 41 41 41 41 41 40 40 40 41 41 42 42 43 44 45 46 47 48 48 48 49 50 51 52 53 53 54 55 57 58 58 59 60 60
44 44 44 44 44 43 43 43 42 42 42 42 41 41 41 41 41 42 42 43 43 44 45 46 47 48 48 48 49 50 51 52 53 54 54 55 56 58 59 59 60 61 61
45 45 45 45 44 44 44 44 44 43 43 42 42 42 42 43 43 43 43 44 44 45 46 46 48 49 49 50 50 51 52 53 54 55 56 57 58 59 60 60 61 61 61
45 45 45 46 46 45 45 46 45 44 44 44 43 44 44 43 43 44 45 45 46 46 47 47 48 49 50 50 51 52 52 53 54 56 57 58 59 60 61 61 61 61 62
46 46 46 46 46 46 46 46 46 45 45 45 45 44 44 43 44 45 45 46 47 47 48 48 49 49 50 50 51 52 53 54 56 57 58 59 60 61 61 62 62 63 63
46 46 46 46 45 45 45 45 45 45 45 45 45 44 44 44 44 45 46 47 47 48 48 49 49 49 50 50 51 53 54 55 57 58 60 60 61 61 61 62 63 64 64
45 45 45 45 45 45 45 44 44 45 45 45 45 45 44 44 44 45 46 47 47 48 49 49 50 50 50 51 52 54 54 56 57 59 60 61 61 61 62 63 64 65 64
45 45 45 45 44 44 45 45 45 45 45 46 45 45 45 45 45 46 47 47 48 48 49 49 49 50 51 52 53 54 55 57 58 59 60 60 60 62 62 63 64 64 64
45 45 45 44 44 45 45 45 45 45 45 45 45 45 46 46 46 46 47 48 48 48 48 49 49 50 51 52 53 54 56 57 58 58 59 59 60 61 62 62 62 62 62
46 46 46 45 45 46 46 45 46 46 45 45 45 45 46 46 46 47 47 47 48 48 49 49 50 51 51 52 53 55 56 57 58 58 58 59 60 61 61 62 62 62 60
46 46 46 46 46 46 46 46 46 46 46 46 46 46 46 46 46 47 46 47 48 48 48 49 50 50 51 52 54 55 56 57 57 58 58 59 60 60 61 61 60 59 57
47 46 46 47 47 47 47 47 46 46 46 46 46 46 46 46 45 45 46 47 47 48 48 49 50 51 51 52 53 55 56 57 57 58 58 59 59 59 59 58 57 55 53
47 48 47 47 47 47 47 47 46 46 46 46 46 46 46 45 44 44 45 45 46 47 48 48 49 50 50 52 53 55 56 56 57 57 57 58 58 57 56 55 53 51 49
46 46 46 46 46 46 46 46 45 45 45 45 45 45 45 45 44 44 45 46 46 47 48 49 49 50 51 52 53 55 56 56 56 56 56 56 55 54 53 52 50 48 46
44 44 44 44 44 45 45 45 44 44 44 45 45 44 44 44 44 45 46 46 46 47 48 48 49 50 51 52 54 54 54 55 55 55 54 54 52 51 50 49 48 46 44
43 43 44 44 45 44 44 44 44 44 44 44 43 43 43 44 44 45 45 45 46 47 48 49 49 50 51 52 53 53 53 53 53 53 52 51 50 49 48 47 46 44 41
42 42 43 43 44 45 45 44 44 44 43 43 42 43 43 44 44 44 44 45 46 47 47 48 49 49 50 51 52 52 52 52 52 51 50 49 48 47 47 46 44 41 39
41 41 41 42 42 43 43 43 42 42 42 41 41 41 42 42 43 43 44 46 46 46 47 47 48 49 50 50 51 51 51 51 50 49 48 47 47 46 45 44 41 39 36
41 41 41 41 40 40 40 40 40 41 41 40 40 41 41 42 42 44 45 46 46 46 46 47 47 48 49 50 51 51 50 49 48 47 46 46 45 45 43 41 39 36 34
39 39 39 39 39 39 39 39 40 40 40 40 40 41 42 42 43 44 44 45 46 46 46 46 47 49 50 50 50 49 48 47 46 45 44 44 43 42 41 38 36 34 31
36 36 36 37 38 38 38 39 39 39 39 40 40 41 41 42 42 43 44 44 44 45 46 47 48 49 49 49 48 46 45 44 43 43 42 41 41 39 37 35 33 31 29
34 35 35 36 36 37 37 37 37 37 38 38 39 40 40 41 41 42 43 43 44 45 45 46 47 47 47 46 44 43 42 42 41 40 40 39 38 36 35 33 31 28 26
34 33 33 34 35 35 36 36 36 36 37 37 38 38 39 39 40 41 42 43 43 44 44 45 45 44 43 42 41 40 40 39 39 38 37 36 35 33 32 30 28 26 24
33 32 33 33 33 34 34 34 34 35 35 36 37 37 37 38 39 40 41 41 42 42 42 42 42 41 40 39 39 38 38 37 36 36 34 33 32 31 29 28 25 23 21
Wind_Direction
259 260 262 263 265 267 269 270 271 272 273 275 278 278 279 281 283 284 285 286 288 290 291 292 293 295 296 297 297 298 299 300 300 301 302 301 301 302 303 303 303 302 302
258 260 261 263 265 267 269 270 271 272 274 275 277 277 279 280 282 283 284 286 288 290 291 293 294 295 296 297 298 298 299 300 301 302 302 302 302 303 303 303 303 303 303
257 258 260 262 264 266 268 270 271 272 273 275 276 277 279 280 282 283 284 286 288 290 292 293 294 295 296 297 298 299 300 301 302 303 303 303 304 304 304 305 304 304 304
257 259 260 262 263 265 267 268 270 271 272 274 275 277 278 280 281 282 284 286 288 290 291 293 294 295 296 297 298 299 301 302 302 303 304 304 305 305 305 306 305 305 305
258 259 261 262 263 265 266 267 269 271 272 274 275 277 278 279 281 283 284 286 288 290 291 293 294 296 296 297 298 300 301 302 303 304 304 305 305 306 306 306 306 305 305
259 260 260 261 262 264 266 267 268 271 272 273 275 276 278 279 281 283 285 286 288 290 292 293 294 295 297 298 299 301 302 303 304 305 305 306 306 307 307 307 306 306 305
258 259 259 260 261 262 264 266 268 269 271 273 274 275 277 279 281 283 285 287 289 291 292 293 294 295 297 299 300 301 302 303 304 305 306 307 307 307 307 307 307 307 307
257 258 259 260 261 262 264 266 267 269 271 272 273 275 277 279 281 283 285 287 289 290 292 294 295 296 297 298 300 301 303 304 305 307 307 308 308 308 308 308 308 308 308
257 257 258 259 260 262 263 265 267 268 270 271 273 275 277 279 281 283 285 287 288 290 292 294 295 296 298 299 300 302 304 305 306 307 307 308 308 308 308 309 309 309 309
257 257 257 259 260 262 263 264 266 268 270 271 272 274 276 278 280 282 284 286 288 289 291 293 295 296 298 299 301 302 304 306 307 307 308 308 308 309 310 310 311 310 310
256 256 257 258 260 261 263 264 266 268 269 271 272 273 275 277 280 282 284 285 287 289 291 293 295 297 298 300 301 303 305 306 307 308 308 309 309 310 311 311 311 311 312
256 257 257 259 260 261 262 264 265 268 269 271 272 274 275 277 279 281 283 285 288 290 292 294 295 297 299 301 302 304 306 307 308 309 309 310 310 311 312 312 312 312 313
256 257 258 259 260 262 263 265 267 268 270 271 272 273 275 277 279 281 284 286 288 290 292 294 296 298 300 301 303 305 307 308 309 309 310 310 311 311 312 312 312 313 313
257 257 258 260 260 262 264 265 266 268 270 271 273 274 275 277 280 282 285 287 288 291 293 295 296 298 300 302 304 306 307 308 309 310 310 311 311 312 312 313 313 313 313
257 258 259 259 261 262 263 264 265 267 269 271 273 274 276 278 281 283 286 287 289 292 293 295 297 299 301 302 304 306 307 308 309 310 311 311 312 312 313 314 314 314 314
257 259 259 259 260 261 263 263 264 266 268 270 272 274 277 278 281 284 287 288 290 292 294 296 297 299 301 303 305 306 307 308 309 310 311 312 312 313 314 315 315 315 314
258 259 259 260 261 262 263 263 264 266 268 270 273 275 277 280 282 284 286 289 290 292 294 296 298 300 302 304 306 307 307 308 309 310 311 312 313 314 314 315 315 315 314
259 259 259 260 260 261 262 263 265 267 268 270 273 275 278 281 283 285 286 288 291 293 295 297 299 300 302 304 305 307 308 308 309 310 310 312 313 314 315 316 315 315 314
260 259 259 260 261 262 263 265 266 267 268 270 273 275 278 281 283 284 287 289 292 294 296 297 299 300 302 304 305 307 307 308 309 309 310 311 313 314 315 315 315 314 313
260 260 261 262 263 264 265 265 266 267 269 271 273 276 279 281 283 285 287 290 292 294 296 297 299 301 302 304 305 306 307 308 308 308 309 311 312 313 314 314 314 313 312
260 260 262 262 263 265 265 265 265 267 270 272 274 276 279 281 282 284 287 290 292 294 296 298 299 301 303 304 305 305 306 307 308 308 309 311 312 313 313 313 313 312 311
260 262 263 263 263 264 265 266 267 269 271 272 275 277 279 281 284 286 289 291 293 295 296 298 299 301 303 304 304 305 305 306 307 309 310 311 312 312 313 313 312 311 311
261 262 263 263 264 265 266 267 269 270 272 273 276 278 280 282 284 286 289 291 293 295 296 298 299 301 302 303 304 304 305 306 308 309 310 311 312 313 313 312 312 311 311
261 262 263 264 265 265 266 268 269 271 273 274 277 279 281 283 285 288 290 292 293 295 297 298 300 301 302 303 304 304 305 307 309 310 311 311 312 313 313 312 312 311 310
261 263 264 266 266 267 268 269 270 273 275 277 280 283 284 286 287 289 290 292 294 296 297 299 300 302 303 304 304 305 306 308 309 310 311 312 313 313 313 312 311 311 309
261 263 265 266 266 268 269 271 273 275 277 279 282 284 285 287 289 291 293 294 295 296 297 299 301 302 302 303 304 305 307 308 309 310 311 312 313 314 313 312 311 311 310
Height
5719 5720 5720 5721 5721 5721 5721 5721 5720 5719 5717 5716 5714 5712 5711 5708 5706 5703 5701 5698 5695 5692 5688 5684 5680 5676 5672 5667 5662 5657 5651 5646 5642 5638 5631 5624 5617 5611 5604 5596 5589 5582 5575
5708 5709 5710 5710 5710 5711 5711 5710 5709 5708 5707 5705 5704 5702 5700 5698 5696 5693 5691 5688 5685 5681 5678 5674 5670 5665 5661 5656 5651 5645 5640 5634 5629 5625 5619 5611 5604 5597 5590 5583 5575 5568 5561
5696 5698 5698 5699 5699 5700 5700 5699 5698 5697 5696 5694 5693 5692 5690 5687 5685 5683 5680 5677 5674 5670 5667 5663 5659 5654 5650 5644 5639 5634 5628 5622 5616 5610 5605 5598 5591 5584 5576 5569 5561 5553 5545
5685 5686 5687 5688 5688 5688 5688 5687 5687 5686 5685 5683 5682 5680 5678 5676 5674 5672 5669 5666 5663 5659 5656 5652 5647 5643 5638 5633 5627 5622 5616 5610 5603 5597 5591 5585 5578 5570 5562 5555 5547 5539 5530
5673 5674 5676 5676 5676 5677 5676 5676 5675 5674 5673 5672 5671 5669 5667 5665 5663 5661 5658 5655 5652 5648 5644 5640 5636 5631 5626 5620 5615 5609 5603 5597 5591 5584 5577 5571 5564 5556 5548 5540 5532 5524 5516
5660 5662 5663 5664 5664 5664 5664 5664 5663 5663 5662 5660 5659 5658 5656 5654 5652 5649 5647 5644 5641 5637 5633 5628 5624 5619 5614 5608 5602 5596 5590 5584 5578 5571 5564 5556 5549 5541 5533 5524 5516 5509 5501
5648 5649 5650 5651 5651 5652 5652 5651 5651 5650 5649 5648 5647 5646 5644 5643 5640 5638 5635 5632 5629 5625 5621 5616 5612 5607 5601 5596 5590 5584 5578 5571 5564 5557 5550 5542 5534 5526 5518 5509 5500 5491 5483
5635 5636 5637 5638 5638 5639 5639 5639 5639 5638 5637 5636 5635 5634 5632 5631 5628 5626 5623 5619 5616 5613 5608 5604 5600 5595 5589 5583 5578 5572 5565 5558 5551 5543 5536 5527 5519 5510 5501 5493 5484 5475 5466
5622 5623 5624 5625 5626 5626 5626 5627 5626 5625 5625 5624 5623 5622 5620 5619 5616 5614 5610 5607 5604 5600 5596 5592 5587 5582 5577 5571 5565 5559 5552 5545 5537 5529 5521 5512 5503 5494 5486 5477 5468 5458 5450
5609 5610 5611 5612 5613 5614 5614 5614 5613 5613 5612 5611 5610 5609 5608 5606 5604 5601 5598 5595 5592 5588 5584 5579 5574 5569 5564 5557 5552 5545 5539 5531 5524 5515 5506 5498 5489 5480 5470 5461 5452 5442 5433
5595 5596 5597 5598 5600 5600 5601 5601 5600 5600 5599 5598 5598 5597 5595 5593 5591 5588 5585 5582 5578 5575 5571 5566 5561 5556 5550 5544 5538 5532 5525 5517 5510 5501 5493 5484 5475 5466 5456 5446 5437 5427 5418
5582 5583 5584 5585 5586 5587 5587 5587 5587 5587 5586 5585 5585 5583 5582 5580 5578 5575 5572 5569 5565 5562 5558 5553 5548 5543 5537 5531 5525 5518 5511 5503 5496 5488 5479 5471 5462 5452 5443 5433 5423 5413 5404
5568 5570 5571 5572 5573 5574 5574 5574 5574 5574 5573 5572 5572 5570 5569 5567 5564 5562 5559 5555 5552 5549 5545 5540 5535 5530 5524 5518 5511 5505 5497 5490 5482 5474 5466 5457 5448 5439 5429 5419 5410 5400 5391
5554 5556 5557 5558 5559 5560 5560 5561 5561 5561 5560 5559 5558 5557 5555 5554 5551 5549 5546 5542 5539 5536 5532 5527 5522 5516 5511 5505 5498 5491 5484 5476 5469 5461 5452 5444 5434 5425 5416 5407 5398 5389 5380
5540 5542 5543 5544 5545 5546 5546 5547 5547 5547 5547 5546 5545 5544 5542 5541 5538 5536 5533 5530 5526 5523 5518 5514 5509 5504 5498 5492 5485 5478 5470 5463 5455 5447 5439 5430 5421 5412 5403 5395 5386 5378 5370
5526 5528 5529 5530 5531 5532 5533 5533 5533 5533 5533 5532 5531 5530 5529 5528 5525 5523 5520 5517 5513 5509 5505 5500 5496 5490 5485 5479 5472 5465 5457 5450 5442 5434 5426 5418 5409 5400 5392 5384 5376 5368 5361
5513 5514 5515 5516 5518 5518 5519 5520 5520 5520 5519 5519 5518 5517 5516 5514 5512 5510 5507 5503 5500 5496 5492 5487 5483 5477 5471 5465 5459 5452 5445 5437 5429 5422 5414 5406 5397 5389 5381 5373 5366 5358 5351
5499 5500 5501 5502 5503 5504 5505 5506 5506 5506 5507 5506 5505 5504 5503 5501 5499 5497 5494 5490 5487 5483 5479 5474 5469 5464 5458 5452 5446 5439 5432 5424 5417 5409 5402 5394 5386 5379 5371 5364 5356 5349 5343
5485 5486 5487 5488 5489 5490 5491 5492 5493 5493 5493 5493 5492 5491 5490 5488 5486 5484 5481 5477 5474 5470 5465 5461 5456 5451 5445 5439 5432 5426 5419 5412 5405 5398 5391 5383 5376 5369 5361 5354 5347 5340 5334
5472 5473 5474 5475 5476 5477 5478 5479 5480 5480 5480 5480 5479 5478 5476 5475 5473 5470 5467 5464 5460 5456 5452 5448 5443 5438 5432 5426 5420 5413 5407 5400 5393 5386 5379 5372 5365 5359 5352 5345 5338 5332 5326
5459 5460 5461 5462 5463 5464 5465 5466 5467 5467 5467 5467 5466 5465 5463 5462 5460 5457 5454 5450 5447 5443 5439 5435 5430 5424 5419 5413 5407 5401 5394 5388 5381 5375 5368 5362 5355 5348 5342 5335 5329 5324 5318
5447 5448 5449 5449 5451 5451 5452 5453 5454 5454 5454 5453 5453 5451 5450 5448 5446 5444 5441 5437 5434 5430 5426 5421 5417 5411 5406 5400 5394 5388 5382 5376 5370 5364 5357 5351 5345 5339 5332 5327 5321 5316 5311
5435 5436 5437 5438 5439 5439 5440 5441 5441 5441 5441 5440 5439 5438 5437 5435 5433 5430 5427 5424 5420 5416 5412 5408 5403 5398 5392 5387 5381 5376 5370 5365 5359 5353 5347 5341 5335 5329 5324 5318 5313 5309 5304
5423 5424 5425 5426 5427 5427 5428 5428 5429 5428 5428 5427 5426 5425 5423 5421 5419 5416 5414 5410 5407 5403 5399 5394 5390 5385 5380 5374 5369 5364 5359 5354 5348 5343 5337 5332 5326 5321 5315 5310 5306 5302 5298
5412 5413 5414 5415 5416 5416 5417 5417 5417 5416 5416 5415 5414 5412 5410 5408 5406 5403 5400 5397 5394 5390 5386 5381 5377 5372 5368 5363 5358 5353 5348 5343 5338 5333 5328 5323 5317 5312 5308 5303 5299 5295 5292
5402 5403 5403 5404 5405 5405 5406 5406 5405 5405 5404 5403 5401 5400 5398 5396 5393 5391 5388 5384 5381 5377 5373 5369 5365 5361 5356 5352 5348 5343 5338 5333 5328 5324 5319 5314 5310 5305 5300 5296 5292 5289 5286